Home   Weather   Hilversum   Past weeks

Flag for Netherlands Past Weather in Hilversum, Netherlands — Yesterday and Last 2 Weeks

Now
36 °F

Overcast.


Feels Like: 36 °F
Forecast: 33 / 44 °F
Wind: 2 mph from Southeast

Location: De Bilt

Current Time: Dec 6, 2016 at 6:59:27 pm

Latest Report: Dec 6, 2016 at 5:00 pm


Visibility: 5 mi

Pressure: 30.43 "Hg

Humidity: 87%

Dew Point: 32 °F

Location of HilversumLocation

Past Weather in Hilversum — Graph

°F

Hilversum Temperature Yesterday

Maximum temperature yesterday: 38 °F (at 2:00 pm)
Minimum temperature yesterday: 20 °F (at 5:00 am)
Average temperature yesterday: 26 °F

High & Low Weather Summary for the Past Weeks

 TemperatureHumidityPressure
High56 °F (Nov 22, 3:00 pm)100% (Dec 2, 10:00 pm)30.60 "Hg (Dec 2, 10:00 pm)
Low20 °F (Nov 29, 7:00 am)45% (Nov 25, 1:00 pm)29.38 "Hg (Nov 21, 4:00 pm)
Average37 °F86%30.24 "Hg
* Reported Nov 21 4:00 pm — Dec 6 4:00 pm, Hilversum, Weather by CustomWeather, © 2016

Note: Actual official high and low records may vary slightly from our data, if they occured in-between our weather recording intervals... More about our weather records

Advertising

Hilversum Weather History for the Previous 24 Hours

Scroll right to see more
 ConditionsComfort  
Time TempWeatherWind HumidityBarometerVisibility
4:00 pm
Tue, Dec 6
38 °FFog.2 mph85%30.43 "Hg6 mi
3:00 pm40 °FOvercast.1 mph79%30.43 "Hg6 mi
2:00 pm40 °FScattered clouds.2 mph80%30.43 "Hg6 mi
1:00 pm40 °FScattered clouds.2 mph79%30.44 "Hg6 mi
12:00 pm37 °FFog.1 mph83%30.43 "Hg5 mi
11:00 am33 °FFog.2 mph89%30.43 "Hg4 mi
10:00 am30 °FFog.2 mph95%30.42 "Hg3 mi
9:00 am26 °FSunny.1 mph96%30.42 "Hg2 mi
8:00 am25 °FFog.1 mph96%30.41 "Hg2 mi
7:00 am25 °FOvercast.2 mph96%30.40 "Hg2 mi
6:00 am24 °FPassing clouds.1 mph96%30.38 "Hg3 mi
4:00 am23 °FOvercast.1 mph96%30.38 "Hg3 mi
3:00 am22 °FOvercast.2 mph96%30.37 "Hg4 mi
2:00 am24 °FFog.1 mph95%30.36 "Hg4 mi
1:00 am24 °FOvercast.1 mph96%30.36 "Hg4 mi
12:00 am24 °FOvercast.1 mph96%30.36 "Hg4 mi
11:00 pm
Mon, Dec 5
25 °FOvercast.1 mph97%30.35 "Hg4 mi
10:00 pm25 °FOvercast.1 mph95%30.35 "Hg4 mi
9:00 pm25 °FFog.1 mph96%30.34 "Hg5 mi
8:00 pm25 °FFog.1 mph96%30.34 "Hg4 mi
7:00 pm26 °FFog.1 mph96%30.34 "Hg6 mi
6:00 pm28 °FPassing clouds.1 mph93%30.32 "Hg6 mi
Weather by CustomWeather, © 2016

See weather overviewHow to use our weather pages